Location: Drummondville
(45.8830°N, 72.4830°W)
Time: 16:07:58
(UTC-05:00)

Envisat - Pass Details

Date: 12 November 2017
Orbit: 764 x 766 km, 98.2° (Epoch: 21 November)

Event Time Altitude Azimuth Distance (km) Brightness Sun altitude
Exits shadow 18:09:11 13° 24° (NNE) 2,139 5.0 -18.8°
Drops below altitude 10° 18:09:52 10° 18° (NNE) 2,312 5.2 -18.9°
Sets 18:12:48 0° 0° (N) 3,243 6.2 -19.4°
